Regional Weather Roundup
Issued by NWS Green Bay, WI

Home | Current Version | Previous Version | Graphics & Text | Print | Product List | Glossary Off
Versions: 1 2 3 4 5 6 7 8 9 10 11 12 13 14 15 16 17 18 19 20 21 22 23 24 25 26 27 28 29 30 31 32 33 34 35 36 37 38 39 40 41 42 43 44 45 46 47 48 49 50

000
ASUS43 KGRB 080500
RWRGRB

NORTH-CENTRAL AND NORTHEAST WISCONSIN REGIONAL WEATHER ROUNDUP
NATIONAL WEATHER SERVICE GREEN BAY WI
1200 AM CDT WED JUL 08 2015

WIZ005-009-010>012-018-019-080600-
NORTH CENTRAL WISCONSIN

CITY           SKY/WX    TMP DP  RH WIND       PRES   REMARKS
IRONWOOD       CLEAR     46  45  93 CALM      30.10R
MANITOWISH WTR NOT AVBL
ARBOR VITAE    NOT AVBL
EAGLE RIVER    NOT AVBL
LAND O LAKES   NOT AVBL
RHINELANDER    CLEAR     46  43  89 CALM      30.14S
PHILLIPS       CLEAR     47  47 100 CALM      30.13S
ANTIGO         NOT AVBL
TOMAHAWK       NOT AVBL
MERRILL        NOT AVBL
$$

WIZ013-073-080600-
NORTHEAST WISCONSIN

CITY           SKY/WX    TMP DP  RH WIND       PRES   REMARKS
IRON MOUNTAIN  CLEAR     50  46  86 CALM      30.12R
MARINETTE      CLEAR     52  46  82 CALM      30.11S
$$

WIZ017-030-035>037-045-080600-
CENTRAL WISCONSIN

CITY           SKY/WX    TMP DP  RH WIND       PRES   REMARKS
MEDFORD        NOT AVBL
WAUSAU         CLEAR     54  50  86 CALM      30.12R
MOSINEE        NOT AVBL
MARSHFIELD     CLEAR     56  48  74 CALM      30.13R
WISC RAPIDS    CLEAR     52  49  89 CALM      30.14R
STEVENS POINT  NOT AVBL
WAUPACA        NOT AVBL
SHAWANO        NOT AVBL
CLINTONVILLE   CLEAR     52  50  93 CALM      30.12R
$$

WIZ038-039-048-051-080600-
FOX VALLEY

CITY           SKY/WX    TMP DP  RH WIND       PRES   REMARKS
NWS GREEN BAY  CLEAR     54  50  86 CALM      30.14R
APPLETON       NOT AVBL
OSHKOSH        CLEAR     54  49  83 SE3       30.12R
FOND DU LAC    CLEAR     53  50  89 SE3       30.13S
$$

WIZ022-050-052-080600-
EAST CENTRAL WISCONSIN

CITY           SKY/WX    TMP DP  RH WIND       PRES   REMARKS
STURGEON BAY   CLEAR     52  45  76 S3        30.15R
MANITOWOC      NOT AVBL
SHEBOYGAN      CLEAR     50  48  93 CALM      30.13R
$$

LMZ563-521-522-541>543-080600-
LAKESHORE

STATION/POSITION TIME  TEMP    WIND        PRES    VSBY  WAVE
                       AIR SEA DIR/SP/G                  HT/PER
                 (UTC) (F)     (DEG/KT/KT) (MB)    (MI)  (FT/S)
SHEBOYGAN LKSHOR 0400   59     310/  2/  3 1020.4R
KEWAUNEE LKSHORE 0400   53     310/  1/  3 1019.4R
ALGOMA MARINA    0426             CALM       N/A
NORTHPORT PIER   0400   56        CALM     1019.6R
N MID LAKE BUOY  0350   54 51   CALM  /  2 1019.5R         1/ 4
S GREEN BAY BUOY 0400   62 68  130/  8/ 10 1021.1R
SISTER BAY LKSHO 0414   53        CALM       N/A
CHAMBERS ISLAND  0400   62      50/  5/  6 1019.6R
MENOMINEE LKSHOR 0400   64      60/  7/  9 1020.2R
$$


USA.gov is the U.S. government's official web portal to all federal, state and local government web resources and services.